STARLINK-30164, 57500

Orbit data source: Space-Track

STARLINK-30164, 57500 is a payload satellite owned by SpaceX/Seattle (US) in LEO that was launched on Mon, 07 Aug 2023 UTC via an FALCON 9 launch vehicle from the Air Force Eastern Test Range (AFETR). Payload-class satellites include a variety of spacecraft equipped with specific instruments for various scientific and technological missions. These include communications satellites like Starlink; space stations such as the ISS; scientific satellites like the Hubble; Earth observation satellites from companies like Planet Labs, Umbra, and HawkEye 360; GPS; miniature CubeSats for education and research; and military/defense satellites.

Loading next visibility...
Identifier
57500, 2023-113F
Orbit
LEO
Country
Flag of USUS
Related business
Manufacturer
SpaceX/Seattle
Mission
Operational Commercial Communications
Bus & Motor
STARLINK V2M, Unknown motor
Mass
730 kg wet, ~700 kg dry
Launch date (UTC)
2023-08-07 (3 years ago)
Launch vehicle
FALCON 9
Launch site
Air Force Eastern Test Range (AFETR)
Object type
Payload
Rocket body
Debris
Shape & HBR
Box + 2 Pan, 17.7 m
Radar Cross Section
33.884 m², Large (>1 m²)

Expand to show TLE details & history
Last TLE update: 2 days ago

TLE from 2 days ago
0 STARLINK-30164
1 57500U 23113F   26171.00913486 -.00000309  00000-0 -17093-5 0  9994
2 57500  43.0031 158.2227 0001247 267.5437  92.5272 15.27576542159326
Epoch: 2026-06-20T00:13Z
TLE epoch observation values (Epoch: 2026-06-20T00:13:09.251Z)
Latitude
-0.00003°
Longitude
-113.29579°
Altitude
482.873 km
Speed
7.626 km/s
True Right ascension
10h 32m 53s
True Declination
0° 00' 00"
Sunlit
Object was in daylight at epoch
Visualization orbit readout
Latitude
Unknown
Longitude
Unknown
Altitude
Unknown
Speed
Unknown
Apparent Right ascension
Unknown
Apparent Declination
Unknown
Sunlit
N/A
Visualization observer readout
Local Sidereal Time
21:28:41
Azimuth
Unknown
Elevation
Unknown
Doppler factor
Unknown
Orbital elements
Apogee altitude
485.86 km
Perigee altitude
484.148 km
Semi-major axis
6,863.141 km
Eccentricity
0.00012
Inclination
43.0031°
RAAN
158.2227°
Arg. of periapsis
267.5437°
True anomaly
92.54148°
Mean anomaly
92.5272°
Eccentric anomaly
92.53434°
Mean motion
3.81732 °/min
Orbital period
94.31 mins
BSTAR
-0.0000017093
Loading maneuver chart data...
Computing Atmospheric mass density...
Loading historical data...
Loading historical data...
Loading historical data...
Loading historical data...
Loading historical data...
Loading historical data...
Loading historical data...

Documentation

Showing up to 5 results
|